CW1187 Weather Reports


Display with metric or nautical units.
time (UTC)temp
F
wind
direction
speed
MPH
gust
MPH
rain 1hr
in
rain 24hr
in
rain mn
in
humidity
%
barometer
mb
20260508122018 51 221 2.0 13.0 0.00 0.00 0.00 71 1013.8
20260508121542 50 207 3.0 10.0 0.00 0.00 0.00 66 1013.8
20260508121019 50 222 2.0 11.0 0.00 0.00 0.00 66 1013.8
20260508120519 50 194 3.0 11.0 0.00 0.00 0.00 65 1013.7
20260508120043 50 169 3.0 9.0 0.00 0.00 0.00 66 1013.7
20260508115520 49 181 3.0 10.0 0.00 0.00 0.00 65 1013.7
20260508115019 49 203 3.0 10.0 0.00 0.00 0.00 66 1013.7
20260508114540 49 217 3.0 9.0 0.00 0.00 0.00 66 1013.7
20260508114019 49 224 4.0 8.0 0.00 0.00 0.00 66 1013.7
20260508113519 48 219 4.0 9.0 0.00 0.00 0.00 66 1013.7
20260508113039 48 188 4.0 11.0 0.00 0.00 0.00 67 1013.6
20260508112519 48 185 3.0 11.0 0.00 0.00 0.00 67 1013.6
20260508112019 48 205 3.0 8.0 0.00 0.00 0.00 67 1013.7
20260508111535 48 211 3.0 8.0 0.00 0.00 0.00 67 1013.5
20260508111019 48 197 3.0 11.0 0.00 0.00 0.00 67 1013.5
20260508110520 48 192 3.0 11.0 0.00 0.00 0.00 67 1013.5
20260508110039 47 216 3.0 7.0 0.00 0.00 0.00 68 1013.5
20260508105520 47 192 2.0 7.0 0.00 0.00 0.00 68 1013.4
20260508105019 47 200 2.0 7.0 0.00 0.00 0.00 68 1013.4
20260508104541 48 189 2.0 7.0 0.00 0.00 0.00 68 1013.3
20260508104020 48 229 2.0 6.0 0.00 0.00 0.00 68 1013.4
20260508103518 48 173 2.0 6.0 0.00 0.00 0.00 68 1013.3
20260508103048 48 224 1.0 5.0 0.00 0.00 0.00 68 1013.2
20260508102520 48 0 1.0 6.0 0.00 0.00 0.00 68 1013.2
20260508102018 48 202 1.0 6.0 0.00 0.00 0.00 68 1013.2
20260508101544 48 209 2.0 5.0 0.00 0.00 0.00 67 1013.2
20260508101019 48 181 2.0 5.0 0.00 0.00 0.00 67 1013.2
20260508100519 48 211 1.0 6.0 0.00 0.00 0.00 67 1013.2
20260508100038 48 189 2.0 6.0 0.00 0.00 0.00 67 1013.2
20260508095520 48 194 3.0 6.0 0.00 0.00 0.00 68 1013.1
20260508095019 48 238 2.0 7.0 0.00 0.00 0.00 69 1013.1
20260508094542 48 184 3.0 7.0 0.00 0.00 0.00 69 1013.1
20260508094023 48 198 2.0 6.0 0.00 0.00 0.00 70 1013.2
20260508093521 48 183 2.0 8.0 0.00 0.00 0.00 71 1013.2
20260508093040 49 207 2.0 8.0 0.00 0.00 0.00 72 1013.3
20260508092519 49 214 2.0 5.0 0.00 0.00 0.00 71 1013.4
20260508092019 49 221 2.0 5.0 0.00 0.00 0.00 71 1013.5
20260508091543 49 0 1.0 4.0 0.00 0.00 0.00 71 1013.6
20260508091022 49 0 1.0 5.0 0.00 0.00 0.00 71 1013.6
20260508090520 49 248 2.0 5.0 0.00 0.00 0.00 71 1013.8
20260508090041 49 257 2.0 4.0 0.00 0.00 0.00 69 1013.7
20260508085519 49 250 1.0 4.0 0.00 0.00 0.00 69 1013.6
20260508085020 49 209 1.0 4.0 0.00 0.00 0.00 68 1013.6
20260508084538 49 215 1.0 4.0 0.00 0.00 0.00 68 1013.5
20260508084021 49 246 1.0 4.0 0.00 0.00 0.00 67 1013.5
20260508083519 49 202 1.0 4.0 0.00 0.00 0.00 67 1013.4
20260508083043 49 215 1.0 4.0 0.00 0.00 0.00 67 1013.4
20260508082519 49 251 1.0 5.0 0.00 0.00 0.00 67 1013.4
20260508082020 49 245 2.0 5.0 0.00 0.00 0.00 67 1013.4
20260508081538 49 229 2.0 5.0 0.00 0.00 0.00 67 1013.3
20260508081017 49 236 2.0 4.0 0.00 0.00 0.00 66 1013.3
20260508080520 49 250 2.0 7.0 0.00 0.00 0.00 67 1013.4
20260508080052 49 242 2.0 7.0 0.00 0.00 0.00 66 1013.4
20260508075520 49 234 2.0 7.0 0.00 0.00 0.00 66 1013.3
20260508075020 49 231 1.0 7.0 0.00 0.00 0.00 66 1013.3
20260508074541 49 240 1.0 7.0 0.00 0.00 0.00 66 1013.2
20260508074020 49 209 2.0 6.0 0.00 0.00 0.00 65 1013.3
20260508073520 50 207 3.0 5.0 0.00 0.00 0.00 65 1013.4
20260508073049 49 229 2.0 5.0 0.00 0.00 0.00 65 1013.3
20260508072520 49 233 1.0 6.0 0.00 0.00 0.00 65 1013.3
20260508072020 49 251 2.0 6.0 0.00 0.00 0.00 64 1013.4
20260508071533 49 205 2.0 4.0 0.00 0.00 0.00 64 1013.4
20260508071018 49 217 2.0 4.0 0.00 0.00 0.00 70 1013.4
20260508070520 49 211 1.0 7.0 0.00 0.00 0.00 64 1013.4
20260508070043 49 225 2.0 7.0 0.00 0.00 0.00 64 1013.3
20260508065519 49 174 2.0 6.0 0.00 0.00 0.00 64 1013.4
20260508065021 49 205 1.0 7.0 0.00 0.00 0.00 64 1013.5
20260508064545 49 207 2.0 7.0 0.00 0.00 0.00 64 1013.5
20260508064018 49 247 2.0 8.0 0.00 0.00 0.00 64 1013.6
20260508063520 49 0 2.0 8.0 0.00 0.00 0.00 64 1013.7
20260508063037 49 207 3.0 8.0 0.00 0.00 0.00 64 1013.7
20260508062523 49 217 2.0 7.0 0.00 0.00 0.00 64 1013.8
20260508062020 49 212 2.0 6.0 0.00 0.00 0.00 64 1013.8
20260508061537 49 265 2.0 7.0 0.00 0.00 0.00 64 1013.8
20260508061019 49 230 2.0 9.0 0.00 0.00 0.00 63 1013.8
20260508060521 49 211 3.0 9.0 0.00 0.00 0.00 63 1013.8
20260508060035 49 211 1.0 6.0 0.00 0.00 0.00 64 1013.9
20260508055518 49 0 2.0 6.0 0.00 0.00 0.00 64 1013.9
20260508055020 49 242 2.0 6.0 0.00 0.00 0.00 64 1013.9
20260508054546 49 223 1.0 6.0 0.00 0.00 0.00 64 1014.0
20260508054018 49 251 2.0 6.0 0.00 0.00 0.00 63 1013.9
20260508053517 50 218 1.0 5.0 0.00 0.00 0.00 63 1013.9
20260508053050 50 182 3.0 5.0 0.00 0.00 0.00 63 1013.8
20260508052521 50 226 2.0 5.0 0.00 0.00 0.00 63 1013.9
20260508052019 50 227 1.0 6.0 0.00 0.00 0.00 63 1013.9
20260508051537 50 0 2.0 6.0 0.00 0.00 0.00 63 1014.0
20260508051020 50 211 3.0 6.0 0.00 0.00 0.00 62 1014.0
20260508050520 50 217 2.0 6.0 0.00 0.00 0.00 63 1014.1
20260508050051 50 247 2.0 7.0 0.00 0.00 0.00 63 1014.0
20260508045519 50 228 1.0 7.0 0.00 0.00 0.00 63 1014.0
20260508045020 50 238 2.0 5.0 0.00 0.00 0.00 63 1014.0
20260508044542 50 234 2.0 9.0 0.00 0.00 0.00 63 1014.0
20260508044021 50 194 2.0 9.0 0.00 0.00 0.00 63 1013.9
20260508043517 50 188 3.0 9.0 0.00 0.00 0.00 63 1013.9
20260508043040 50 211 2.0 7.0 0.00 0.00 0.00 63 1013.9
20260508042518 50 213 2.0 6.0 0.00 0.00 0.00 63 1013.9
20260508042020 50 202 1.0 5.0 0.00 0.00 0.00 64 1014.0
20260508041539 50 231 1.0 5.0 0.00 0.00 0.00 63 1014.0
20260508041021 50 211 2.0 5.0 0.00 0.00 0.00 63 1013.9
20260508040520 50 225 1.0 5.0 0.00 0.00 0.00 63 1013.9
20260508040050 50 203 1.0 4.0 0.00 0.00 0.00 63 1013.9
20260508035520 50 226 1.0 4.0 0.00 0.00 0.00 63 1013.9
20260508035023 50 239 1.0 5.0 0.00 0.00 0.00 63 1013.9
20260508034543 50 236 1.0 5.0 0.00 0.00 0.00 63 1013.9
20260508034020 50 236 2.0 6.0 0.00 0.00 0.00 63 1013.8
20260508033519 50 232 2.0 6.0 0.00 0.00 0.00 63 1013.8
20260508033034 50 194 2.0 5.0 0.00 0.00 0.00 63 1013.8
20260508032521 51 225 1.0 4.0 0.00 0.00 0.00 63 1013.8
20260508032023 51 226 1.0 3.0 0.00 0.00 0.00 62 1013.8
20260508031533 51 212 1.0 4.0 0.00 0.00 0.00 63 1013.8
20260508031023 51 222 1.0 4.0 0.00 0.00 0.00 63 1013.9
20260508030520 51 217 1.0 4.0 0.00 0.00 0.00 62 1013.9
20260508030039 51 215 0.0 4.0 0.00 0.00 0.00 61 1013.9
20260508025519 52 217 1.0 3.0 0.00 0.00 0.00 61 1013.9
20260508025020 52 0 0.0 3.0 0.00 0.00 0.00 61 1013.9
20260508024539 52 242 0.0 3.0 0.00 0.00 0.00 61 1013.9
20260508024020 52 242 1.0 3.0 0.00 0.00 0.00 60 1013.8
20260508023520 52 273 0.0 3.0 0.00 0.00 0.00 61 1013.8
20260508023039 52 273 1.0 3.0 0.00 0.00 0.00 61 1013.9
20260508022519 52 274 0.0 3.0 0.00 0.00 0.00 62 1013.8
20260508022019 52 0 0.0 3.0 0.00 0.00 0.00 62 1013.8
20260508021536 52 0 1.0 3.0 0.00 0.00 0.00 63 1013.8
20260508021020 52 267 1.0 3.0 0.00 0.00 0.00 59 1013.9
20260508020521 52 221 1.0 3.0 0.00 0.00 0.00 59 1013.7
20260508020040 53 0 0.0 3.0 0.00 0.00 0.00 58 1013.7
20260508015520 53 0 0.0 0.0 0.00 0.00 0.00 57 1013.8
20260508015020 53 0 0.0 0.0 0.00 0.00 0.00 59 1013.6
20260508014539 54 0 0.0 2.0 0.00 0.00 0.00 59 1013.6
20260508014020 54 0 0.0 3.0 0.00 0.00 0.00 58 1013.7
20260508013519 55 259 1.0 3.0 0.00 0.00 0.00 59 1013.7
20260508013038 55 0 0.0 1.0 0.00 0.00 0.00 64 1013.7
20260508012519 55 0 0.0 1.0 0.00 0.00 0.00 59 1013.7
20260508012019 55 0 0.0 2.0 0.00 0.00 0.00 57 1013.7
20260508011539 55 0 0.0 2.0 0.00 0.00 0.00 58 1013.7
20260508011019 55 0 0.0 3.0 0.00 0.00 0.00 57 1013.7
20260508010520 55 0 0.0 3.0 0.00 0.00 0.00 56 1013.5
20260508010034 56 261 1.0 3.0 0.00 0.00 0.00 56 1013.5
20260508005520 56 0 0.0 3.0 0.00 0.00 0.00 61 1013.3
20260508005020 56 0 0.0 6.0 0.00 0.00 0.00 53 1013.4
20260508004547 56 279 1.0 6.0 0.00 0.00 0.00 54 1013.5
20260508004023 56 277 2.0 7.0 0.00 0.00 0.00 52 1013.6
20260508003523 56 279 2.0 9.0 0.00 0.00 0.00 54 1013.6
20260508003036 56 248 3.0 11.0 0.00 0.00 0.00 53 1013.6
20260508002520 57 302 5.0 11.0 0.00 0.00 0.00 49 1013.6
20260508002019 57 317 4.0 8.0 0.00 0.00 0.00 53 1013.6
20260508001535 57 267 2.0 6.0 0.00 0.00 0.00 53 1013.7
20260508001019 57 281 1.0 5.0 0.00 0.00 0.00 52 1013.7
20260508000522 57 259 3.0 5.0 0.00 0.00 0.00 49 1013.7
20260508000034 57 247 2.0 5.0 0.00 0.00 0.00 50 1013.6
20260507235519 57 250 2.0 5.0 0.00 0.00 0.00 50 1013.6
20260507235019 58 279 2.0 8.0 0.00 0.00 0.00 50 1013.5
20260507234545 58 264 3.0 8.0 0.00 0.00 0.00 51 1013.5
20260507234020 58 255 4.0 8.0 0.00 0.00 0.00 48 1013.4
20260507233518 58 261 3.0 7.0 0.00 0.00 0.00 48 1013.3
20260507233053 58 247 2.0 5.0 0.00 0.00 0.00 47 1013.3
20260507232522 58 238 2.0 5.0 0.00 0.00 0.00 43 1013.2
20260507232017 59 240 1.0 6.0 0.00 0.00 0.00 42 1013.3
20260507231539 59 217 2.0 6.0 0.00 0.00 0.00 46 1013.3
20260507231020 59 201 2.0 7.0 0.00 0.00 0.00 43 1013.2
20260507230520 59 243 1.0 7.0 0.00 0.00 0.00 42 1013.2
20260507230043 60 253 4.0 7.0 0.00 0.00 0.00 43 1013.2
20260507225520 60 254 3.0 7.0 0.00 0.00 0.00 44 1013.4
20260507225020 60 244 3.0 8.0 0.00 0.00 0.00 42 1013.5
20260507224539 60 215 2.0 8.0 0.00 0.00 0.00 40 1013.5
20260507224018 60 228 1.0 7.0 0.00 0.00 0.00 48 1013.6
20260507223519 60 262 3.0 7.0 0.00 0.00 0.00 42 1013.6
20260507223041 61 275 2.0 8.0 0.00 0.00 0.00 41 1013.6
20260507222520 61 252 3.0 8.0 0.00 0.00 0.00 42 1013.6
20260507222018 61 253 2.0 10.0 0.00 0.00 0.00 44 1013.5
20260507221542 61 224 2.0 10.0 0.00 0.00 0.00 37 1013.4
20260507221018 62 254 4.0 10.0 0.00 0.00 0.00 41 1013.3
20260507220520 62 231 1.0 8.0 0.00 0.00 0.00 39 1013.3
20260507220040 62 229 2.0 7.0 0.00 0.00 0.00 41 1013.3
20260507215520 62 259 2.0 10.0 0.00 0.00 0.00 40 1013.3
20260507215019 62 253 3.0 10.0 0.00 0.00 0.00 41 1013.3
20260507214542 62 249 4.0 10.0 0.00 0.00 0.00 42 1013.2
20260507214019 62 219 1.0 10.0 0.00 0.00 0.00 39 1013.3
20260507213519 63 242 2.0 10.0 0.00 0.00 0.00 38 1013.3
20260507213042 64 266 2.0 6.0 0.00 0.00 0.00 40 1013.4
20260507212520 64 260 1.0 6.0 0.00 0.00 0.00 37 1013.3
20260507212019 64 279 1.0 7.0 0.00 0.00 0.00 39 1013.5
20260507211545 64 293 2.0 7.0 0.00 0.00 0.00 38 1013.5
20260507211019 64 253 3.0 6.0 0.00 0.00 0.00 40 1013.6
20260507210520 64 256 2.0 5.0 0.00 0.00 0.00 37 1013.6
20260507205520 64 298 2.0 8.0 0.00 0.00 0.00 47 1013.7
20260507205018 64 291 4.0 8.0 0.00 0.00 0.00 39 1013.7
20260507204545 63 260 3.0 8.0 0.00 0.00 0.00 40 1013.7
20260507204020 63 281 3.0 9.0 0.00 0.00 0.00 43 1013.8
20260507203520 62 275 3.0 9.0 0.00 0.00 0.00 41 1013.8
20260507203039 62 297 3.0 9.0 0.00 0.00 0.00 42 1013.9
20260507202519 62 295 3.0 7.0 0.00 0.00 0.00 43 1013.9
20260507202019 63 320 2.0 7.0 0.00 0.00 0.00 48 1013.9
20260507201538 62 323 2.0 8.0 0.00 0.00 0.00 43 1013.9
20260507201017 61 329 1.0 8.0 0.00 0.00 0.00 41 1014.1
20260507200519 62 350 3.0 8.0 0.00 0.00 0.00 39 1014.2
20260507200043 62 355 1.0 8.0 0.00 0.00 0.00 38 1014.2
20260507195519 63 280 3.0 10.0 0.00 0.00 0.00 44 1014.2
20260507195020 63 265 3.0 10.0 0.00 0.00 0.00 46 1014.3
20260507194549 62 283 1.0 9.0 0.00 0.00 0.00 44 1014.3
20260507194020 62 329 3.0 11.0 0.00 0.00 0.00 37 1014.4
20260507193519 62 311 2.0 11.0 0.00 0.00 0.00 44 1014.4
20260507193041 61 287 3.0 11.0 0.00 0.00 0.00 45 1014.4
20260507192521 60 348 3.0 12.0 0.00 0.00 0.00 40 1014.5
20260507192020 60 317 5.0 12.0 0.00 0.00 0.00 40 1014.5
20260507191544 61 10 4.0 9.0 0.00 0.00 0.00 44 1014.6
20260507191022 61 327 2.0 9.0 0.00 0.00 0.00 42 1014.8
20260507190519 61 360 3.0 9.0 0.00 0.00 0.00 39 1014.7
20260507190047 62 337 3.0 9.0 0.00 0.00 0.00 38 1014.7
20260507185523 62 311 3.0 10.0 0.00 0.00 0.00 47 1014.7
20260507185020 62 281 3.0 10.0 0.00 0.00 0.00 41 1014.6
20260507184543 61 321 4.0 9.0 0.00 0.00 0.00 42 1014.7
20260507184019 61 351 3.0 10.0 0.00 0.00 0.00 44 1014.7
20260507183520 61 270 4.0 10.0 0.00 0.00 0.00 46 1014.7
20260507183053 60 269 3.0 9.0 0.00 0.00 0.00 44 1014.8
20260507182519 58 292 3.0 9.0 0.00 0.00 0.00 47 1014.7
20260507182019 58 314 3.0 11.0 0.00 0.00 0.00 45 1014.7
20260507181541 58 16 4.0 11.0 0.00 0.00 0.00 41 1014.6
20260507181020 60 355 4.0 10.0 0.00 0.00 0.00 41 1014.9
20260507180520 60 328 4.0 8.0 0.00 0.00 0.00 50 1015.0
20260507180038 61 310 3.0 10.0 0.00 0.00 0.00 46 1015.0
20260507175519 60 298 4.0 10.0 0.00 0.00 0.00 49 1015.1
20260507175020 60 292 3.0 9.0 0.00 0.00 0.00 49 1015.1
20260507174539 59 342 2.0 10.0 0.00 0.00 0.00 46 1015.0
20260507174020 59 281 4.0 10.0 0.00 0.00 0.00 47 1015.1
20260507173521 58 311 2.0 11.0 0.00 0.00 0.00 53 1015.1
20260507173044 58 330 4.0 12.0 0.00 0.00 0.00 48 1015.5
20260507172519 58 286 4.0 12.0 0.00 0.00 0.00 44 1015.4
20260507172021 59 333 5.0 12.0 0.00 0.00 0.00 44 1015.5
20260507171540 59 340 3.0 10.0 0.00 0.00 0.00 46 1015.5
20260507171019 59 297 4.0 10.0 0.00 0.00 0.00 45 1015.6
20260507170520 59 318 4.0 9.0 0.00 0.00 0.00 45 1015.6
20260507170042 58 311 3.0 9.0 0.00 0.00 0.00 52 1015.7
20260507165519 58 287 3.0 8.0 0.00 0.00 0.00 51 1015.8
20260507165019 58 289 3.0 7.0 0.00 0.00 0.00 47 1015.8
20260507164548 58 334 3.0 6.0 0.00 0.00 0.00 50 1015.8
20260507164020 57 278 3.0 13.0 0.00 0.00 0.00 50 1015.8
20260507163525 57 349 3.0 13.0 0.00 0.00 0.00 46 1015.9
20260507163038 56 285 2.0 10.0 0.00 0.00 0.00 48 1015.9
20260507162522 56 329 3.0 12.0 0.00 0.00 0.00 52 1016.0
20260507162019 56 360 2.0 12.0 0.00 0.00 0.00 49 1016.0
20260507161549 56 315 5.0 12.0 0.00 0.00 0.00 46 1015.9
20260507161019 55 355 3.0 9.0 0.00 0.00 0.00 49 1016.0
20260507160520 55 302 3.0 11.0 0.00 0.00 0.00 51 1016.0
20260507160039 55 324 3.0 13.0 0.00 0.00 0.00 48 1016.0
20260507155520 55 347 5.0 13.0 0.00 0.00 0.00 49 1016.0
20260507155020 55 24 5.0 12.0 0.00 0.00 0.00 52 1016.0
20260507154539 55 15 5.0 12.0 0.00 0.00 0.00 44 1016.0
20260507154019 55 292 3.0 10.0 0.00 0.00 0.00 52 1016.0
20260507153519 54 331 5.0 12.0 0.00 0.00 0.00 48 1016.0
20260507153042 54 323 3.0 12.0 0.00 0.00 0.00 51 1016.0
20260507152522 54 308 4.0 11.0 0.00 0.00 0.00 49 1015.9
20260507152021 53 288 5.0 12.0 0.00 0.00 0.00 50 1016.0
20260507151538 54 9 3.0 12.0 0.00 0.00 0.00 54 1016.0
20260507151019 54 298 4.0 9.0 0.00 0.00 0.00 49 1016.0
20260507150519 54 311 3.0 10.0 0.00 0.00 0.00 53 1015.9
20260507150036 53 275 3.0 10.0 0.00 0.00 0.00 53 1015.9
20260507145520 53 300 4.0 8.0 0.00 0.00 0.00 49 1015.8
20260507145025 53 315 3.0 7.0 0.00 0.00 0.00 53 1015.9
20260507144540 53 298 3.0 7.0 0.00 0.00 0.00 53 1015.9
20260507144022 53 277 2.0 6.0 0.00 0.00 0.00 55 1015.8
20260507143520 52 283 2.0 6.0 0.00 0.00 0.00 56 1015.8
20260507143041 52 297 2.0 8.0 0.00 0.00 0.00 55 1015.9
20260507142520 52 286 3.0 9.0 0.00 0.00 0.00 54 1015.9
20260507142020 51 296 2.0 9.0 0.00 0.00 0.00 55 1015.8
20260507141536 51 270 4.0 9.0 0.00 0.00 0.00 50 1015.8
20260507141020 51 290 3.0 6.0 0.00 0.00 0.00 54 1015.8
20260507140520 51 302 2.0 5.0 0.00 0.00 0.00 53 1015.9
20260507140039 51 277 1.0 4.0 0.00 0.00 0.00 57 1015.9
20260507135520 50 292 2.0 4.0 0.00 0.00 0.00 57 1016.0
20260507135023 50 317 2.0 5.0 0.00 0.00 0.00 60 1015.9
20260507134540 50 284 1.0 5.0 0.00 0.00 0.00 59 1015.9
20260507134019 49 292 1.0 5.0 0.00 0.00 0.00 59 1015.9
20260507133520 49 330 1.0 5.0 0.00 0.00 0.00 67 1015.9
20260507133046 48 355 1.0 4.0 0.00 0.00 0.00 63 1015.9
20260507132519 48 352 2.0 4.0 0.00 0.00 0.00 65 1015.9
20260507132019 48 284 2.0 4.0 0.00 0.00 0.00 67 1015.8
20260507131540 47 288 1.0 3.0 0.00 0.00 0.00 67 1016.0
20260507131020 47 288 1.0 4.0 0.00 0.00 0.00 67 1015.9
20260507130522 47 286 2.0 4.0 0.00 0.00 0.00 69 1015.9
20260507130042 46 0 1.0 4.0 0.00 0.00 0.00 73 1015.9
20260507125520 46 286 1.0 4.0 0.00 0.00 0.00 70 1015.9
20260507125018 45 284 1.0 4.0 0.00 0.00 0.00 71 1015.8
20260507124540 45 281 1.0 4.0 0.00 0.00 0.00 73 1015.8
20260507124024 45 276 1.0 4.0 0.00 0.00 0.00 73 1015.8
20260507123522 44 276 1.0 4.0 0.00 0.00 0.00 74 1015.7
20260507123042 44 282 1.0 3.0 0.00 0.00 0.00 75 1015.7
20260507122519 44 288 1.0 3.0 0.00 0.00 0.00 76 1015.9